This is the latest recevied weather packets stored in our database for station/object BV1EV-2. If no packets are shown the sender has not sent any weather packets the latest 10 day(s).
| Time | Temp. | Humidity | Pressure | Rain* | Wind** | Luminosity | Snow |
|---|---|---|---|---|---|---|---|
| 1778186268 | 26.67° C | 53% | 1010.9 hPa | - | - | - | - |
| 1778185068 | 26.11° C | 46% | 1010.6 hPa | - | - | - | - |
| 1778183868 | 26.11° C | 43% | 1010.4 hPa | - | - | - | - |
| 1778182667 | 27.22° C | 51% | 1010.4 hPa | - | - | - | - |
| 1778181467 | 26.11° C | 41% | 1010.2 hPa | - | - | - | - |
| 1778180268 | 27.22° C | 45% | 1010.1 hPa | - | - | - | - |
| 1778179068 | 27.22° C | 52% | 1010.2 hPa | - | - | - | - |
| 1778177868 | 27.22° C | 40% | 1010.2 hPa | - | - | - | - |
| 1778176667 | 27.22° C | 42% | 1010.1 hPa | - | - | - | - |
| 1778175467 | 28.33° C | 47% | 1009.9 hPa | - | - | - | - |
| 1778174267 | 28.33° C | 42% | 1009.9 hPa | - | - | - | - |
| 1778173067 | 28.89° C | 45% | 1009.9 hPa | - | - | - | - |
| 1778171867 | 30° C | 53% | 1010.1 hPa | - | - | - | - |
| 1778170667 | 29.44° C | 52% | 1010.2 hPa | - | - | - | - |
| 1778169467 | 28.33° C | 63% | 1010.5 hPa | - | - | - | - |
| 1778168268 | 27.78° C | 62% | 1010.7 hPa | - | - | - | - |
| 1778167068 | 28.89° C | 49% | 1010.8 hPa | - | - | - | - |
| 1778165867 | 28.89° C | 50% | 1010.9 hPa | - | - | - | - |
| 1778164667 | 28.89° C | 48% | 1011 hPa | - | - | - | - |
| 1778163467 | 28.89° C | 49% | 1011 hPa | - | - | - | - |
| 1778162267 | 28.89° C | 51% | 1011 hPa | - | - | - | - |
| 1778161067 | 30.56° C | 49% | 1010.9 hPa | - | - | - | - |
| 1778159867 | 30° C | 49% | 1010.8 hPa | - | - | - | - |
| 1778158667 | 30.56° C | 49% | 1010.7 hPa | - | - | - | - |
| 1778157467 | 31.67° C | 50% | 1010.7 hPa | - | - | - | - |
* Rain since midnight (hover to see other rain measurements)
** Current wind speed in m/s (hover to see current wind gust speed)